| time (UTC) | temp F | wind direction | speed knots | gust knots | rain 1hr in | rain 24hr in | rain mn in | humidity % | barometer mb |
| 20260504200205 | 64 | 82 | 6.1 | 15.6 | 0.00 | 0.00 | 0.00 | 30 | 1012.7 |
| 20260504195707 | 64 | 125 | 6.1 | 20.0 | 0.00 | 0.00 | 0.00 | 30 | 1012.7 |
| 20260504195200 | 64 | 217 | 7.0 | 20.0 | 0.00 | 0.00 | 0.00 | 31 | 1012.9 |
| 20260504194148 | 64 | 233 | 5.2 | 14.8 | 0.00 | 0.00 | 0.00 | 32 | 1012.8 |
| 20260504191127 | 62 | 150 | 7.8 | 23.5 | 0.00 | 0.00 | 0.00 | 35 | 1013.3 |
| 20260504190626 | 62 | 229 | 6.1 | 20.0 | 0.00 | 0.00 | 0.00 | 35 | 1013.5 |
| 20260504190127 | 62 | 183 | 5.2 | 19.1 | 0.00 | 0.00 | 0.00 | 36 | 1013.6 |
| 20260504185127 | 62 | 135 | 5.2 | 13.9 | 0.00 | 0.00 | 0.00 | 37 | 1013.0 |
| 20260504184627 | 62 | 116 | 5.2 | 15.6 | 0.00 | 0.00 | 0.00 | 36 | 1013.3 |
| 20260504184129 | 62 | 278 | 6.1 | 18.2 | 0.00 | 0.00 | 0.00 | 36 | 1013.4 |
| 20260504183130 | 62 | 248 | 4.3 | 11.3 | 0.00 | 0.00 | 0.00 | 38 | 1013.4 |
| 20260504182627 | 62 | 148 | 3.5 | 10.4 | 0.00 | 0.00 | 0.00 | 37 | 1013.2 |
| 20260504182126 | 62 | 293 | 5.2 | 19.1 | 0.00 | 0.00 | 0.00 | 39 | 1013.4 |
| 20260504181628 | 61 | 35 | 7.8 | 19.1 | 0.00 | 0.00 | 0.00 | 40 | 1013.5 |
| 20260504181128 | 61 | 283 | 7.0 | 18.2 | 0.00 | 0.00 | 0.00 | 40 | 1013.4 |
| 20260504180627 | 61 | 174 | 6.1 | 22.6 | 0.00 | 0.00 | 0.00 | 40 | 1013.6 |
| 20260504180127 | 60 | 189 | 6.1 | 22.6 | 0.00 | 0.00 | 0.00 | 41 | 1013.3 |
| 20260504175628 | 60 | 137 | 7.0 | 21.7 | 0.00 | 0.00 | 0.00 | 41 | 1013.5 |
| 20260504175125 | 60 | 201 | 8.7 | 18.2 | 0.00 | 0.00 | 0.00 | 42 | 1013.3 |
| 20260504174625 | 60 | 172 | 8.7 | 29.5 | 0.00 | 0.00 | 0.00 | 43 | 1013.5 |
| 20260504174124 | 60 | 122 | 7.0 | 29.5 | 0.00 | 0.00 | 0.00 | 43 | 1013.3 |
| 20260504173624 | 60 | 185 | 7.0 | 15.6 | 0.00 | 0.00 | 0.00 | 42 | 1013.2 |
| 20260504173126 | 60 | 162 | 6.1 | 15.6 | 0.00 | 0.00 | 0.00 | 42 | 1013.3 |
| 20260504172624 | 60 | 164 | 6.1 | 13.9 | 0.00 | 0.00 | 0.00 | 42 | 1013.3 |
| 20260504172124 | 60 | 220 | 7.0 | 15.6 | 0.00 | 0.00 | 0.00 | 43 | 1013.0 |
| 20260504171625 | 59 | 170 | 7.0 | 15.6 | 0.00 | 0.00 | 0.00 | 43 | 1013.3 |
| 20260504171124 | 60 | 150 | 6.1 | 20.0 | 0.00 | 0.00 | 0.00 | 43 | 1012.9 |
| 20260504170624 | 60 | 234 | 7.0 | 20.0 | 0.00 | 0.00 | 0.00 | 42 | 1012.9 |
| 20260504170125 | 60 | 170 | 6.1 | 19.1 | 0.00 | 0.00 | 0.00 | 42 | 1013.2 |
| 20260504160127 | 59 | 134 | 4.3 | 15.6 | 0.00 | 0.00 | 0.00 | 46 | 1013.0 |
| 20260504150616 | 58 | 79 | 4.3 | 14.8 | 0.00 | 0.00 | 0.00 | 44 | 1013.2 |
| 20260504150109 | 58 | 153 | 4.3 | 14.8 | 0.00 | 0.00 | 0.00 | 44 | 1013.2 |
| 20260504141104 | 58 | 184 | 3.5 | 10.4 | 0.00 | 0.00 | 0.00 | 42 | 1012.7 |
| 20260504140606 | 57 | 175 | 3.5 | 13.0 | 0.00 | 0.00 | 0.00 | 41 | 1012.8 |
| 20260504140105 | 57 | 139 | 2.6 | 13.0 | 0.00 | 0.00 | 0.00 | 41 | 1012.6 |
| 20260504081935 | 63 | 183 | 1.7 | 7.8 | 0.00 | 0.00 | 0.00 | 29 | 1011.6 |
| 20260504081429 | 63 | 197 | 1.7 | 6.1 | 0.00 | 0.00 | 0.00 | 29 | 1011.6 |
| 20260504080419 | 63 | 195 | 1.7 | 7.0 | 0.00 | 0.00 | 0.00 | 28 | 1012.1 |
| 20260504070406 | 65 | 193 | 1.7 | 6.1 | 0.00 | 0.00 | 0.00 | 24 | 1011.9 |
| 20260504050357 | 69 | 207 | 6.1 | 12.2 | 0.00 | 0.00 | 0.00 | 18 | 1011.9 |
| 20260504045855 | 69 | 188 | 6.1 | 12.2 | 0.00 | 0.00 | 0.00 | 18 | 1011.9 |
| 20260504045414 | 69 | 160 | 5.2 | 12.2 | 0.00 | 0.00 | 0.00 | 18 | 1012.0 |
| 20260504044859 | 69 | 277 | 5.2 | 9.6 | 0.00 | 0.00 | 0.00 | 18 | 1011.8 |
| 20260504044359 | 69 | 127 | 4.3 | 12.2 | 0.00 | 0.00 | 0.00 | 18 | 1011.9 |
| 20260504043859 | 69 | 226 | 4.3 | 12.2 | 0.00 | 0.00 | 0.00 | 18 | 1012.0 |
| 20260504043348 | 69 | 143 | 4.3 | 11.3 | 0.00 | 0.00 | 0.00 | 18 | 1011.9 |
| 20260504042847 | 70 | 162 | 5.2 | 17.4 | 0.00 | 0.00 | 0.00 | 18 | 1012.1 |
| 20260504042346 | 70 | 166 | 5.2 | 17.4 | 0.00 | 0.00 | 0.00 | 18 | 1012.0 |
| 20260504041336 | 70 | 229 | 3.5 | 10.4 | 0.00 | 0.00 | 0.00 | 18 | 1011.8 |
| 20260504040833 | 70 | 177 | 3.5 | 10.4 | 0.00 | 0.00 | 0.00 | 18 | 1011.7 |
| 20260504035837 | 70 | 177 | 4.3 | 10.4 | 0.00 | 0.00 | 0.00 | 18 | 1011.6 |
| 20260504035337 | 70 | 129 | 4.3 | 10.4 | 0.00 | 0.00 | 0.00 | 18 | 1011.6 |
| 20260504034831 | 70 | 292 | 4.3 | 13.0 | 0.00 | 0.00 | 0.00 | 17 | 1011.5 |
| 20260504033829 | 71 | 160 | 2.6 | 9.6 | 0.00 | 0.00 | 0.00 | 17 | 1011.3 |
| 20260504033327 | 71 | 197 | 3.5 | 7.0 | 0.00 | 0.00 | 0.00 | 17 | 1011.1 |
| 20260504032332 | 71 | 218 | 3.5 | 8.7 | 0.00 | 0.00 | 0.00 | 17 | 1011.1 |
| 20260504031829 | 71 | 193 | 4.3 | 11.3 | 0.00 | 0.00 | 0.00 | 17 | 1011.1 |
| 20260504031328 | 71 | 256 | 4.3 | 14.8 | 0.00 | 0.00 | 0.00 | 17 | 1011.1 |
| 20260504030828 | 71 | 194 | 5.2 | 14.8 | 0.00 | 0.00 | 0.00 | 16 | 1011.0 |
| 20260504030328 | 71 | 158 | 6.1 | 14.8 | 0.00 | 0.00 | 0.00 | 16 | 1010.9 |
| 20260504025829 | 71 | 174 | 7.0 | 18.2 | 0.00 | 0.00 | 0.00 | 16 | 1010.9 |
| 20260504024822 | 71 | 172 | 4.3 | 12.2 | 0.00 | 0.00 | 0.00 | 14 | 1010.9 |
| 20260504024316 | 71 | 202 | 3.5 | 12.2 | 0.00 | 0.00 | 0.00 | 14 | 1010.9 |
| 20260504023810 | 71 | 156 | 2.6 | 8.7 | 0.00 | 0.00 | 0.00 | 14 | 1010.8 |
| 20260504023304 | 72 | 251 | 3.5 | 9.6 | 0.00 | 0.00 | 0.00 | 14 | 1010.8 |
| 20260504022252 | 73 | 221 | 6.1 | 14.8 | 0.00 | 0.00 | 0.00 | 13 | 1010.7 |
| 20260504021747 | 73 | 300 | 5.2 | 12.2 | 0.00 | 0.00 | 0.00 | 12 | 1010.7 |
| 20260504021240 | 73 | 226 | 4.3 | 12.2 | 0.00 | 0.00 | 0.00 | 12 | 1010.5 |
| 20260504020735 | 74 | 243 | 4.3 | 13.0 | 0.00 | 0.00 | 0.00 | 12 | 1010.5 |
| 20260504020229 | 74 | 161 | 6.1 | 13.9 | 0.00 | 0.00 | 0.00 | 11 | 1010.5 |
| 20260504015722 | 74 | 174 | 6.1 | 13.9 | 0.00 | 0.00 | 0.00 | 11 | 1010.5 |
| 20260504014205 | 77 | 170 | 5.2 | 16.5 | 0.00 | 0.00 | 0.00 | 9 | 1010.5 |
| 20260504013152 | 78 | 154 | 4.3 | 13.9 | 0.00 | 0.00 | 0.00 | 8 | 1010.5 |
| 20260504012647 | 78 | 228 | 4.3 | 9.6 | 0.00 | 0.00 | 0.00 | 8 | 1010.5 |
| 20260504012141 | 78 | 176 | 4.3 | 10.4 | 0.00 | 0.00 | 0.00 | 8 | 1010.5 |
| 20260504011634 | 78 | 210 | 6.1 | 11.3 | 0.00 | 0.00 | 0.00 | 7 | 1010.7 |
| 20260504011129 | 78 | 147 | 6.1 | 12.2 | 0.00 | 0.00 | 0.00 | 7 | 1010.5 |
| 20260504010622 | 79 | 118 | 5.2 | 13.0 | 0.00 | 0.00 | 0.00 | 7 | 1010.5 |
| 20260504010116 | 79 | 130 | 3.5 | 13.0 | 0.00 | 0.00 | 0.00 | 6 | 1010.5 |
| 20260504005611 | 80 | 56 | 4.3 | 15.6 | 0.00 | 0.00 | 0.00 | 6 | 1010.5 |
| 20260504005104 | 80 | 248 | 5.2 | 15.6 | 0.00 | 0.00 | 0.00 | 5 | 1010.3 |
| 20260504004558 | 80 | 212 | 5.2 | 18.2 | 0.00 | 0.00 | 0.00 | 5 | 1010.5 |
| 20260504004053 | 80 | 179 | 7.0 | 18.2 | 0.00 | 0.00 | 0.00 | 5 | 1010.5 |
| 20260504003546 | 79 | 193 | 6.1 | 15.6 | 0.00 | 0.00 | 0.00 | 5 | 1010.5 |
| 20260504003044 | 79 | 191 | 5.2 | 16.5 | 0.00 | 0.00 | 0.00 | 5 | 1010.5 |
| 20260504002535 | 79 | 134 | 5.2 | 16.5 | 0.00 | 0.00 | 0.00 | 5 | 1010.5 |
| 20260504002028 | 78 | 188 | 5.2 | 13.0 | 0.00 | 0.00 | 0.00 | 5 | 1010.5 |
| 20260504001523 | 78 | 239 | 5.2 | 11.3 | 0.00 | 0.00 | 0.00 | 5 | 1010.8 |
| 20260504001016 | 77 | 208 | 4.3 | 15.6 | 0.00 | 0.00 | 0.00 | 6 | 1010.5 |
| 20260504000510 | 77 | 218 | 4.3 | 13.0 | 0.00 | 0.00 | 0.00 | 5 | 1010.5 |
| 20260503235459 | 77 | 182 | 4.3 | 15.6 | 0.00 | 0.00 | 0.00 | 5 | 1010.7 |
| 20260503234953 | 77 | 216 | 3.5 | 15.6 | 0.00 | 0.00 | 0.00 | 5 | 1010.5 |
| 20260503234447 | 76 | 201 | 5.2 | 15.6 | 0.00 | 0.00 | 0.00 | 5 | 1010.8 |
| 20260503233943 | 77 | 193 | 5.2 | 13.0 | 0.00 | 0.00 | 0.00 | 4 | 1010.5 |
| 20260503233441 | 77 | 218 | 6.1 | 13.0 | 0.00 | 0.00 | 0.00 | 4 | 1010.8 |
| 20260503231941 | 80 | 158 | 7.8 | 17.4 | 0.00 | 0.00 | 0.00 | 4 | 1010.7 |
| 20260503231441 | 79 | 193 | 7.8 | 20.9 | 0.00 | 0.00 | 0.00 | 4 | 1010.7 |
| 20260503230944 | 80 | 244 | 7.8 | 20.9 | 0.00 | 0.00 | 0.00 | 4 | 1010.8 |
| 20260503230442 | 80 | 53 | 8.7 | 16.5 | 0.00 | 0.00 | 0.00 | 4 | 1010.9 |
| 20260503225941 | 80 | 129 | 7.0 | 16.5 | 0.00 | 0.00 | 0.00 | 4 | 1011.0 |
| 20260503225443 | 80 | 183 | 6.1 | 18.2 | 0.00 | 0.00 | 0.00 | 3 | 1010.9 |
| 20260503224939 | 80 | 168 | 7.0 | 18.2 | 0.00 | 0.00 | 0.00 | 4 | 1010.8 |
| 20260503224440 | 80 | 137 | 7.0 | 16.5 | 0.00 | 0.00 | 0.00 | 4 | 1010.9 |
| 20260503223938 | 80 | 229 | 7.0 | 16.5 | 0.00 | 0.00 | 0.00 | 4 | 1011.0 |
| 20260503223437 | 80 | 143 | 6.1 | 15.6 | 0.00 | 0.00 | 0.00 | 4 | 1011.0 |
| 20260503222938 | 80 | 199 | 7.0 | 18.2 | 0.00 | 0.00 | 0.00 | 4 | 1011.0 |
| 20260503222439 | 80 | 293 | 7.0 | 18.2 | 0.00 | 0.00 | 0.00 | 5 | 1011.1 |
| 20260503221935 | 81 | 140 | 5.2 | 16.5 | 0.00 | 0.00 | 0.00 | 7 | 1010.9 |
| 20260503221434 | 80 | 266 | 6.1 | 16.5 | 0.00 | 0.00 | 0.00 | 8 | 1011.2 |
| 20260503220929 | 80 | 204 | 5.2 | 15.6 | 0.00 | 0.00 | 0.00 | 8 | 1011.1 |
| 20260503215917 | 80 | 208 | 7.0 | 17.4 | 0.00 | 0.00 | 0.00 | 10 | 1011.3 |
| 20260503215410 | 81 | 291 | 7.8 | 15.6 | 0.00 | 0.00 | 0.00 | 9 | 1011.5 |
| 20260503214905 | 80 | 214 | 8.7 | 17.4 | 0.00 | 0.00 | 0.00 | 10 | 1011.6 |
| 20260503214404 | 80 | 46 | 6.1 | 17.4 | 0.00 | 0.00 | 0.00 | 10 | 1011.6 |
| 20260503213854 | 81 | 89 | 4.3 | 13.0 | 0.00 | 0.00 | 0.00 | 10 | 1011.7 |
| 20260503213349 | 80 | 265 | 5.2 | 15.6 | 0.00 | 0.00 | 0.00 | 10 | 1011.7 |
| 20260503212840 | 80 | 230 | 5.2 | 15.6 | 0.00 | 0.00 | 0.00 | 10 | 1011.8 |
| 20260503212335 | 81 | 257 | 5.2 | 14.8 | 0.00 | 0.00 | 0.00 | 10 | 1011.8 |
| 20260503211837 | 81 | 217 | 6.1 | 19.1 | 0.00 | 0.00 | 0.00 | 10 | 1011.9 |
| 20260503211331 | 80 | 247 | 7.0 | 19.1 | 0.00 | 0.00 | 0.00 | 11 | 1011.9 |
| 20260503210831 | 81 | 146 | 6.1 | 13.9 | 0.00 | 0.00 | 0.00 | 9 | 1012.3 |
| 20260503210331 | 80 | 161 | 7.0 | 17.4 | 0.00 | 0.00 | 0.00 | 9 | 1012.4 |
| 20260503205830 | 80 | 169 | 7.0 | 17.4 | 0.00 | 0.00 | 0.00 | 10 | 1012.3 |
| 20260503205327 | 80 | 179 | 5.2 | 17.4 | 0.00 | 0.00 | 0.00 | 10 | 1012.3 |
| 20260503204829 | 80 | 224 | 5.2 | 21.7 | 0.00 | 0.00 | 0.00 | 10 | 1012.6 |
| 20260503204328 | 79 | 118 | 6.1 | 21.7 | 0.00 | 0.00 | 0.00 | 10 | 1012.8 |
| 20260503202827 | 80 | 96 | 7.0 | 18.2 | 0.00 | 0.00 | 0.00 | 10 | 1012.8 |
| 20260503202327 | 80 | 92 | 6.1 | 18.2 | 0.00 | 0.00 | 0.00 | 11 | 1013.0 |
| 20260503201827 | 80 | 190 | 7.0 | 17.4 | 0.00 | 0.00 | 0.00 | 10 | 1013.2 |
| 20260503201334 | 80 | 158 | 6.1 | 23.5 | 0.00 | 0.00 | 0.00 | 11 | 1013.0 |
| 20260503200831 | 80 | 251 | 5.2 | 23.5 | 0.00 | 0.00 | 0.00 | 10 | 1013.2 |
| 20260503200329 | 80 | 168 | 3.5 | 13.0 | 0.00 | 0.00 | 0.00 | 12 | 1013.2 |